FW0727 Weather Reports


time (UTC)temp
C
wind
direction
speed
KPH
gust
KPH
rain 1hr
cm
rain 24hr
cm
rain mn
cm
humidity
%
barometer
mb
20260506115134 23 0.0 0.0 0.00 0.00 0.00 28 1013.2
20260506114550 23 0.0 0.0 0.00 0.00 0.00 28 1013.2
20260506114005 23 0.0 0.0 0.00 0.00 0.00 28 1013.3
20260506113420 23 0.0 0.0 0.00 0.00 0.00 29 1013.3
20260506112827 23 0.0 0.0 0.00 0.00 0.00 30 1013.3
20260506112241 23 0.0 0.0 0.00 0.00 0.00 30 1013.4
20260506111656 23 0.0 0.0 0.00 0.00 0.00 30 1013.4
20260506111111 23 0.0 0.0 0.00 0.00 0.00 30 1013.4
20260506110526 23 0.0 0.0 0.00 0.00 0.00 31 1013.4
20260506105942 23 0.0 0.0 0.00 0.00 0.00 30 1013.5
20260506105348 23 0.0 0.0 0.00 0.00 0.00 30 1013.5
20260506104756 22 0.0 0.0 0.00 0.00 0.00 29 1013.6
20260506104211 23 0.0 0.0 0.00 0.00 0.00 30 1013.6
20260506103626 23 0.0 0.0 0.00 0.00 0.00 30 1013.7
20260506103040 23 0.0 0.0 0.00 0.00 0.00 31 1013.6
20260506102456 23 0.0 0.0 0.00 0.00 0.00 29 1013.7
20260506101911 22 0.0 0.0 0.00 0.00 0.00 29 1013.7
20260506101326 23 0.0 0.0 0.00 0.00 0.00 29 1013.7
20260506100742 23 0.0 0.0 0.00 0.00 0.00 29 1013.6
20260506100149 23 0.0 0.0 0.00 0.00 0.00 29 1013.7
20260506095026 22 0.0 0.0 0.00 0.00 0.00 31 1013.8
20260506093910 22 0.0 0.0 0.00 0.00 0.00 31 1013.9
20260506093325 22 0.0 0.0 0.00 0.00 0.00 33 1013.9
20260506092211 22 0.0 0.0 0.00 0.00 0.00 33 1014.0
20260506091626 21 0.0 0.0 0.00 0.00 0.00 33 1014.0
20260506091041 21 0.0 0.0 0.00 0.00 0.00 31 1014.0
20260506090451 22 0.0 0.0 0.00 0.00 0.00 33 1013.9
20260506085906 21 0.0 0.0 0.00 0.00 0.00 34 1014.0
20260506085320 21 0.0 0.0 0.00 0.00 0.00 34 1014.0
20260506084735 21 0.0 0.0 0.00 0.00 0.00 34 1014.0
20260506084150 21 0.0 0.0 0.00 0.00 0.00 35 1014.0
20260506083556 21 0.0 0.0 0.00 0.00 0.00 36 1014.0
20260506083011 21 0.0 0.0 0.00 0.00 0.00 36 1014.0
20260506082426 21 0.0 0.0 0.00 0.00 0.00 35 1014.0
20260506081840 20 0.0 0.0 0.00 0.00 0.00 36 1014.0
20260506081255 20 0.0 0.0 0.00 0.00 0.00 35 1014.0
20260506080709 20 0.0 0.0 0.00 0.00 0.00 36 1014.0
20260506080124 20 0.0 0.0 0.00 0.00 0.00 37 1014.0
20260506073240 20 0.0 0.0 0.00 0.00 0.00 38 1014.1
20260506072646 19 0.0 0.0 0.00 0.00 0.00 38 1014.1
20260506072102 18 0.0 0.0 0.00 0.00 0.00 37 1014.2
20260506071508 18 0.0 0.0 0.00 0.00 0.00 37 1014.1
20260506070923 18 0.0 0.0 0.00 0.00 0.00 37 1014.1
20260506070338 18 0.0 0.0 0.00 0.00 0.00 37 1014.1
20260506062314 18 0.0 0.0 0.00 0.00 0.00 40 1014.2
20260506061730 17 0.0 0.0 0.00 0.00 0.00 41 1014.1
20260506061142 17 0.0 0.0 0.00 0.00 0.00 41 1014.2
20260506060557 17 0.0 0.0 0.00 0.00 0.00 44 1014.1
20260506051409 13 0.0 0.0 0.00 0.00 0.00 50 1014.3
20260506050825 13 0.0 0.0 0.00 0.00 0.00 50 1014.3
20260506050240 13 0.0 0.0 0.00 0.00 0.00 50 1014.3
20260506045111 12 0.0 0.0 0.00 0.00 0.00 52 1014.2
20260506044526 12 0.0 0.0 0.00 0.00 0.00 52 1014.2
20260506043941 11 0.0 0.0 0.00 0.00 0.00 52 1014.2
20260506043356 11 0.0 0.0 0.00 0.00 0.00 53 1014.2
20260506042811 10 0.0 0.0 0.00 0.00 0.00 53 1014.2
20260506042226 10 0.0 0.0 0.00 0.00 0.00 54 1014.2
20260506041641 10 0.0 0.0 0.00 0.00 0.00 54 1014.2
20260506041052 10 0.0 0.0 0.00 0.00 0.00 55 1014.1
20260506040507 9 0.0 0.0 0.00 0.00 0.00 55 1014.2
20260506035922 9 0.0 0.0 0.00 0.00 0.00 56 1014.1
20260506035338 9 0.0 0.0 0.00 0.00 0.00 56 1014.1
20260506034753 9 0.0 0.0 0.00 0.00 0.00 56 1014.0
20260506034208 8 0.0 0.0 0.00 0.00 0.00 56 1014.0
20260506033624 8 0.0 0.0 0.00 0.00 0.00 57 1014.0
20260506033039 8 0.0 0.0 0.00 0.00 0.00 57 1014.0
20260506032457 8 0.0 0.0 0.00 0.00 0.00 57 1014.0
20260506031913 8 0.0 0.0 0.00 0.00 0.00 57 1014.0
20260506031328 8 0.0 0.0 0.00 0.00 0.00 56 1013.9
20260506030743 8 0.0 0.0 0.00 0.00 0.00 56 1013.9
20260506030159 8 0.0 0.0 0.00 0.00 0.00 56 1013.8
20260506025044 8 0.0 0.0 0.00 0.00 0.00 56 1013.9
20260506024500 8 0.0 0.0 0.00 0.00 0.00 56 1013.9
20260506023915 8 0.0 0.0 0.00 0.00 0.00 55 1013.8
20260506023331 9 0.0 0.0 0.00 0.00 0.00 55 1013.8
20260506022746 9 0.0 0.0 0.00 0.00 0.00 55 1013.7
20260506022201 9 0.0 0.0 0.00 0.00 0.00 55 1013.7
20260506021616 9 0.0 0.0 0.00 0.00 0.00 55 1013.7
20260506021032 9 0.0 0.0 0.00 0.00 0.00 55 1013.8
20260506020447 9 0.0 0.0 0.00 0.00 0.00 55 1013.7
20260506015902 9 0.0 0.0 0.00 0.00 0.00 55 1013.7
20260506015317 9 0.0 0.0 0.00 0.00 0.00 56 1013.6
20260506014732 9 0.0 0.0 0.00 0.00 0.00 56 1013.6
20260506014147 9 0.0 0.0 0.00 0.00 0.00 56 1013.6
20260506013603 9 0.0 0.0 0.00 0.00 0.00 56 1013.6
20260506013018 9 0.0 0.0 0.00 0.00 0.00 55 1013.6
20260506012432 10 0.0 0.0 0.00 0.00 0.00 56 1013.6
20260506011847 10 0.0 0.0 0.00 0.00 0.00 55 1013.6
20260506011302 10 0.0 0.0 0.00 0.00 0.00 55 1013.6
20260506010712 10 0.0 0.0 0.00 0.00 0.00 55 1013.6
20260506010128 10 0.0 0.0 0.00 0.00 0.00 55 1013.6
20260506005543 10 0.0 0.0 0.00 0.00 0.00 55 1013.6
20260506004958 10 0.0 0.0 0.00 0.00 0.00 55 1013.6
20260506004414 10 0.0 0.0 0.00 0.00 0.00 55 1013.5
20260506003830 10 0.0 0.0 0.00 0.00 0.00 55 1013.5
20260506003245 10 0.0 0.0 0.00 0.00 0.00 55 1013.4
20260506002700 10 0.0 0.0 0.00 0.00 0.00 55 1013.5
20260506002115 10 0.0 0.0 0.00 0.00 0.00 55 1013.4
20260506001531 10 0.0 0.0 0.00 0.00 0.00 54 1013.4
20260506000946 10 0.0 0.0 0.00 0.00 0.00 54 1013.5
20260506000402 10 0.0 0.0 0.00 0.00 0.00 55 1013.4
20260505235817 10 0.0 0.0 0.00 0.00 0.00 55 1013.4
20260505235232 10 0.0 0.0 0.00 0.00 0.00 55 1013.3
20260505234648 11 0.0 0.0 0.00 0.00 0.00 55 1013.3
20260505234103 11 0.0 0.0 0.00 0.00 0.00 55 1013.3
20260505233519 11 0.0 0.0 0.00 0.00 0.00 55 1013.3
20260505232934 11 0.0 0.0 0.00 0.00 0.00 55 1013.3
20260505232348 11 0.0 0.0 0.00 0.00 0.00 55 1013.3
20260505231803 11 0.0 0.0 0.00 0.00 0.00 55 1013.4
20260505231219 11 0.0 0.0 0.00 0.00 0.00 55 1013.4
20260505230635 11 0.0 0.0 0.00 0.00 0.00 54 1013.4
20260505230050 11 0.0 0.0 0.00 0.00 0.00 54 1013.5
20260505225505 11 0.0 0.0 0.00 0.00 0.00 55 1013.5
20260505224916 11 0.0 0.0 0.00 0.00 0.00 54 1013.4
20260505224332 11 0.0 0.0 0.00 0.00 0.00 55 1013.4
20260505223748 11 0.0 0.0 0.00 0.00 0.00 54 1013.5
20260505223202 11 0.0 0.0 0.00 0.00 0.00 54 1013.5
20260505222618 11 0.0 0.0 0.00 0.00 0.00 54 1013.5
20260505222033 11 0.0 0.0 0.00 0.00 0.00 55 1013.5
20260505221448 11 0.0 0.0 0.00 0.00 0.00 54 1013.6
20260505220903 12 0.0 0.0 0.00 0.00 0.00 54 1013.6
20260505220319 12 0.0 0.0 0.00 0.00 0.00 54 1013.6
20260505215734 12 0.0 0.0 0.00 0.00 0.00 54 1013.6
20260505215149 12 0.0 0.0 0.00 0.00 0.00 54 1013.6
20260505214605 12 0.0 0.0 0.00 0.00 0.00 55 1013.6
20260505214020 12 0.0 0.0 0.00 0.00 0.00 54 1013.6
20260505213435 12 0.0 0.0 0.00 0.00 0.00 54 1013.6
20260505212850 12 0.0 0.0 0.00 0.00 0.00 54 1013.6
20260505212306 12 0.0 0.0 0.00 0.00 0.00 54 1013.7
20260505211720 12 0.0 0.0 0.00 0.00 0.00 54 1013.6
20260505211135 12 0.0 0.0 0.00 0.00 0.00 54 1013.7
20260505210551 12 0.0 0.0 0.00 0.00 0.00 54 1013.8
20260505210001 12 0.0 0.0 0.00 0.00 0.00 54 1013.8
20260505205417 12 0.0 0.0 0.00 0.00 0.00 54 1013.6
20260505204832 12 0.0 0.0 0.00 0.00 0.00 54 1013.5
20260505204246 13 0.0 0.0 0.00 0.00 0.00 54 1013.5
20260505203701 13 0.0 0.0 0.00 0.00 0.00 54 1013.4
20260505203116 13 0.0 0.0 0.00 0.00 0.00 54 1013.5
20260505202532 13 0.0 0.0 0.00 0.00 0.00 53 1013.5
20260505201948 13 0.0 0.0 0.00 0.00 0.00 53 1013.4
20260505201403 13 0.0 0.0 0.00 0.00 0.00 53 1013.4
20260505200818 13 0.0 0.0 0.00 0.00 0.00 53 1013.4
20260505200234 13 0.0 0.0 0.00 0.00 0.00 53 1013.4
20260505195649 13 0.0 0.0 0.00 0.00 0.00 53 1013.4
20260505195104 13 0.0 0.0 0.00 0.00 0.00 53 1013.4
20260505194519 13 0.0 0.0 0.00 0.00 0.00 52 1013.3
20260505193934 13 0.0 0.0 0.00 0.00 0.00 53 1013.3
20260505193349 13 0.0 0.0 0.00 0.00 0.00 52 1013.2
20260505192805 13 0.0 0.0 0.00 0.00 0.00 52 1013.2
20260505192212 13 0.0 0.0 0.00 0.00 0.00 53 1013.3
20260505191627 14 0.0 0.0 0.00 0.00 0.00 52 1013.2
20260505191042 14 0.0 0.0 0.00 0.00 0.00 52 1013.3
20260505190457 14 0.0 0.0 0.00 0.00 0.00 52 1013.2
20260505185913 14 0.0 0.0 0.00 0.00 0.00 51 1013.2
20260505185328 14 0.0 0.0 0.00 0.00 0.00 51 1013.2
20260505184743 14 0.0 0.0 0.00 0.00 0.00 51 1013.1
20260505184159 15 0.0 0.0 0.00 0.00 0.00 51 1013.2
20260505183613 15 0.0 0.0 0.00 0.00 0.00 50 1013.2
20260505183029 15 0.0 0.0 0.00 0.00 0.00 50 1013.2
20260505182445 15 0.0 0.0 0.00 0.00 0.00 50 1013.1
20260505181846 15 0.0 0.0 0.00 0.00 0.00 50 1013.1
20260505181302 15 0.0 0.0 0.00 0.00 0.00 50 1013.0
20260505180717 15 0.0 0.0 0.00 0.00 0.00 50 1012.8
20260505180133 15 0.0 0.0 0.00 0.00 0.00 50 1012.8
20260505175549 16 0.0 0.0 0.00 0.00 0.00 49 1012.8
20260505174955 16 0.0 0.0 0.00 0.00 0.00 49 1012.8
20260505174410 16 0.0 0.0 0.00 0.00 0.00 48 1012.8
20260505173825 16 0.0 0.0 0.00 0.00 0.00 47 1012.7
20260505173241 16 0.0 0.0 0.00 0.00 0.00 46 1012.7
20260505172656 16 0.0 0.0 0.00 0.00 0.00 45 1012.6
20260505172111 16 0.0 0.0 0.00 0.00 0.00 45 1012.6
20260505171526 16 0.0 0.0 0.00 0.00 0.00 44 1012.7
20260505170942 16 0.0 0.0 0.00 0.00 0.00 42 1012.6
20260505170357 16 0.0 0.0 0.00 0.00 0.00 43 1012.6
20260505165812 17 0.0 0.0 0.00 0.00 0.00 43 1012.6
20260505165228 17 0.0 0.0 0.00 0.00 0.00 41 1012.7
20260505164642 17 0.0 0.0 0.00 0.00 0.00 42 1012.8
20260505164057 17 0.0 0.0 0.00 0.00 0.00 43 1012.8
20260505163511 17 0.0 0.0 0.00 0.00 0.00 43 1012.8
20260505162926 17 0.0 0.0 0.00 0.00 0.00 43 1012.8
20260505162342 17 0.0 0.0 0.00 0.00 0.00 42 1012.8
20260505161757 17 0.0 0.0 0.00 0.00 0.00 42 1012.6
20260505161213 17 0.0 0.0 0.00 0.00 0.00 42 1012.4
20260505160628 17 0.0 0.0 0.00 0.00 0.00 42 1012.4
20260505153159 18 0.0 0.0 0.00 0.00 0.00 41 1012.5
20260505152614 18 0.0 0.0 0.00 0.00 0.00 41 1012.3
20260505152030 18 0.0 0.0 0.00 0.00 0.00 41 1012.1
20260505151445 18 0.0 0.0 0.00 0.00 0.00 40 1012.0
20260505150859 18 0.0 0.0 0.00 0.00 0.00 40 1012.0
20260505140603 23 0.0 0.0 0.00 0.00 0.00 29 1012.6
20260505130248 24 0.0 0.0 0.00 0.00 0.00 27 1012.2
20260505124520 24 0.0 0.0 0.00 0.00 0.00 27 1012.3
20260505123934 24 0.0 0.0 0.00 0.00 0.00 27 1012.4
20260505123349 24 0.0 0.0 0.00 0.00 0.00 26 1012.5
20260505122804 24 0.0 0.0 0.00 0.00 0.00 27 1012.5
20260505122219 24 0.0 0.0 0.00 0.00 0.00 27 1012.6
20260505121634 23 0.0 0.0 0.00 0.00 0.00 26 1012.7
20260505121049 23 0.0 0.0 0.00 0.00 0.00 27 1012.7
20260505120504 23 0.0 0.0 0.00 0.00 0.00 26 1012.8
20260505115919 23 0.0 0.0 0.00 0.00 0.00 26 1012.8
20260505115333 23 0.0 0.0 0.00 0.00 0.00 27 1012.8